AirNav   Air Wisconsin pilot careers
 
 519 users online  

K38 Washington County Veteran's Memorial Airport
Washington, Kansas, USA

GOING TO WASHINGTON?


FAA INFORMATION EFFECTIVE 13 SEPTEMBER 2018

Location

FAA Identifier: K38
Lat/Long: 39-44-06.6000N / 097-02-51.3000W
39-44.110000N / 097-02.855000W
39.7351667 / -97.0475833
(estimated)
Elevation: 1436.5 ft. / 437.8 m (surveyed)
Variation: 06E (1990)
From city: 5 miles S of WASHINGTON, KS
Time zone: UTC -5 (UTC -6 during Standard Time)
Zip code: 66953

Airport Operations

Airport use: Open to the public
Activation date: 01/1980
Control tower: no
ARTCC: KANSAS CITY CENTER
FSS: WICHITA FLIGHT SERVICE STATION
NOTAMs facility: ICT (NOTAM-D service available)
Attendance: UNATNDD
Wind indicator: yes, WIND INDICATOR OTS INDEFLY.
Segmented circle: no
Lights: ACTVT MIRL RY 17/35 - CTAF.
Beacon: white-green (lighted land airport)
Operates sunset to sunrise.

Airport Communications

CTAF: 122.9
  • APCH/DEP SVC PRVDD BY KANSAS CITY ARTCC ON FREQS 127.35/257.975 (MANHATTAN RCAG).

Nearby radio navigation aids

VOR radial/distance  VOR name  Freq  Var
BIEr195/(36.5)BEATRICE VOR110.6007E
MHKr330/39.5MANHATTAN VOR/DME110.2004E

 
NDB name  Hdg/Dist  Freq  Var  ID
CLAY CENTER010/21.936204ECYW -.-. -.-- .--
FAIRBURY162/27.029306EFBY ..-. -... -.--

Airport Services

Parking: tiedowns

Runway Information

Runway 17/35

Dimensions: 3406 x 60 ft. / 1038 x 18 m
Surface: concrete, in good condition
Runway edge lights: medium intensity
Gradient: N.
RUNWAY 17  RUNWAY 35
Latitude: 39-44.390798N39-43.829835N
Longitude: 097-02.853932W097-02.856890W
Elevation: 1436.5 ft.1425.9 ft.
Gradient: 0.3% UP
Traffic pattern: leftleft
Runway heading: 174 magnetic, 180 true354 magnetic, 000 true
Displaced threshold: 220 ft.no
Markings: nonprecision, in good conditionnonprecision, in good condition
Touchdown point: yes, no lightsyes, no lights
Obstructions: 15 ft. road, 300 ft. from runway, 6:1 slope to clear
RWY 17 APPROACH SLOPE 34:1 TO THE DISP THLD.
68 ft. pline, marked, 1562 ft. from runway, 20:1 slope to clear

Airport Ownership and Management from official FAA records

Ownership: Publicly-owned
Owner: WASHINGTON COUNTY
CO CMSNRS, WASH CO COURTHOUSE
WASHINGTON, KS 66968
Phone 785-325-2974
Manager: SHARON PIERCE
PO BOX 277
WASHINGTON, KS 66968
Phone 785-325-2318

Airport Operational Statistics

Aircraft based on the field: 3
Single engine airplanes: 3
    
Aircraft operations: avg 33/week *
53% local general aviation
47% transient general aviation
* for 12-month period ending 17 September 2015

Additional Remarks

24 HR PHONE AVBL FOR PUBLIC USE WITH PHONE CARD.

Instrument Procedures

NOTE: All procedures below are presented as PDF files. If you need a reader for these files, you should download the free Adobe Reader.

NOT FOR NAVIGATION. Please procure official charts for flight.
FAA instrument procedures published for use from 13 September 2018 at 0901Z to 11 October 2018 at 0900Z.

 
IAPs - Instrument Approach Procedures
RNAV (GPS) RWY 17   download (190KB)
RNAV (GPS) RWY 35   download (200KB)
NOTE: Special Take-Off Minimums/Departure Procedures apply   download

Other nearby airports with instrument procedures:

KMYZ - Marysville Municipal Airport (21 nm E)
KCYW - Clay Center Municipal Airport (21 nm S)
KFBY - Fairbury Municipal Airport (27 nm N)
KRPB - Belleville Municipal Airport (29 nm W)
KCNK - Blosser Municipal Airport (30 nm W)
 
Loc | Ops | Rwys | IFR | FBO | Links
Com | Nav | Svcs | Stats | Notes

Kansas City Aviation Department
 
Area around K38 (Washington County Veteran's Memorial Airport)
 
Road maps at: MapQuest Bing Google
 
Aerial photo
WARNING: Photo may not be current or correct
Aerial photo of K38 (Washington County Veteran's Memorial Airport)
Do you have a better or more recent aerial photo of Washington County Veteran's Memorial Airport that you would like to share? If so, please send us your photo.

 
Sectional chart

 
Airport distance calculator
Flying to Washington County Veteran's Memorial Airport? Find the distance to fly.

From to K38

Sunrise and sunset
Times for 25-Sep-2018
 Local
(UTC-5)
 Zulu
(UTC)
Morning civil twilight06:5311:53
Sunrise07:2012:20
Sunset19:2000:20
Evening civil twilight19:4700:47

Current date and time
Zulu (UTC)  25-Sep-2018 05:53:37
Local (UTC-5)  25-Sep-2018 00:53:37
 
METAR
KMYZ 
21nm E 
250535Z AUTO 17008KT 10SM SCT055 19/18 A2985 RMK AO2
KCNK 
30nm W 
250455Z AUTO 17008KT 10SM SCT055 20/18 A2985 RMK AO2 SLP095 T02000178
KHJH 
35nm NW 
250535Z AUTO 02003KT 10SM OVC055 18/15 A2988 RMK AO2 T01830147
KBIE 
36nm N 
250535Z AUTO 30004KT 10SM SCT048 BKN065 18/17 A2986 RMK AO2 T01800172
KMHK 
40nm SE 
250452Z AUTO 21004KT 10SM CLR 21/19 A2985 RMK AO2 SLP100 T02060189
TAF
KMHK 
40nm SE 
241740Z 2418/2518 19012KT P6SM SCT035 FM250900 VRB04KT 4SM BR FEW004 BKN015 FM251300 VRB04KT P6SM BKN015
KFRI 
44nm S 
250000Z 2500/2606 17009KT 9999 SCT030 QNH2976INS BECMG 2505/2506 16009KT 9999 BKN015 QNH2979INS BECMG 2509/2510 17006KT 8000 BR BKN006 QNH2980INS BECMG 2511/2512 19012KT 8000 -SHRA BKN008 OVC010 QNH2978INS BECMG 2515/2516 23010G15KT 8000 -SHRA SCT010 BKN030 QNH2986INS BECMG 2517/2518 34020G30KT 9999 NSW BKN030 QNH2993INS BECMG 2600/2601 35012KT 9999 FEW030 QNH3005INS TX26/2500Z TN12/2506Z
NOTAMs
Click for the latest NOTAMs
NOTAMs are issued by the DoD/FAA and will open in a separate window not controlled by AirNav.

 

 
 

Would you like to see your business listed on this page?

 If your business provides an interesting product or service to pilots, flight crews, aircraft, or users of the Washington County Veteran's Memorial Airport, you should consider listing it here.  To start the listing process, click on the button below
 
Add a business
 

Other Pages about Washington County Veteran's Memorial Airport

Update a link
 
Copyright © AirNav, LLC. All rights reserved. Privacy Policy  Contact